QPF
0.01 0.01 0.01 0.02 0.02 0.01 0.02 0.03 0.03 0.03 0.03 0.02 0.02 0.02 0.02 0.01 0.01 0.01 0.01 0.01 0.01 0.01 0.01 0.01 0.04 0.09 0.11 0.12 0.10 0.06 0.04 0.05 0.06 0.06 0.08 0.11 0.11 0.10
0.02 0.01 0.01 0.02 0.02 0.02 0.02 0.04 0.04 0.03 0.02 0.02 0.02 0.02 0.01 0.01 0.01 0.01 0.01 0.02 0.01 0.01 0.00 0.01 0.04 0.07 0.08 0.09 0.07 0.06 0.04 0.04 0.06 0.07 0.08 0.08 0.07 0.07
0.02 0.02 0.02 0.02 0.02 0.02 0.02 0.03 0.04 0.03 0.02 0.02 0.03 0.02 0.01 0.01 0.02 0.03 0.02 0.02 0.02 0.01 0.01 0.02 0.04 0.06 0.08 0.10 0.10 0.09 0.07 0.06 0.05 0.07 0.09 0.09 0.08 0.07
0.02 0.02 0.02 0.02 0.02 0.02 0.01 0.01 0.02 0.02 0.02 0.02 0.03 0.03 0.02 0.02 0.02 0.02 0.04 0.04 0.03 0.02 0.02 0.04 0.06 0.06 0.07 0.07 0.05 0.04 0.04 0.04 0.03 0.03 0.05 0.06 0.07 0.08
0.01 0.01 0.02 0.02 0.02 0.02 0.01 0.01 0.01 0.01 0.01 0.01 0.02 0.02 0.02 0.01 0.01 0.02 0.04 0.06 0.06 0.05 0.04 0.04 0.04 0.03 0.04 0.03 0.03 0.02 0.02 0.02 0.03 0.03 0.03 0.03 0.04 0.05
0.01 0.01 0.01 0.02 0.02 0.03 0.03 0.02 0.01 0.01 0.01 0.01 0.01 0.02 0.02 0.02 0.01 0.03 0.04 0.04 0.04 0.06 0.06 0.05 0.04 0.03 0.02 0.01 0.01 0.01 0.01 0.01 0.01 0.01 0.02 0.02 0.01 0.01
0.01 0.01 0.01 0.01 0.02 0.02 0.02 0.02 0.02 0.01 0.01 0.01 0.01 0.02 0.02 0.03 0.03 0.04 0.04 0.03 0.03 0.04 0.04 0.04 0.03 0.03 0.02 0.01 0.01 0.01 0.01 0.01 0.01 0.01 0.01 0.02 0.01 0.01
0.01 0.01 0.01 0.01 0.02 0.03 0.02 0.02 0.01 0.02 0.02 0.02 0.01 0.02 0.02 0.02 0.02 0.03 0.04 0.03 0.03 0.03 0.03 0.03 0.02 0.02 0.02 0.01 0.01 0.01 0.01 0.01 0.01 0.01 0.01 0.01 0.01 0.01
0.01 0.01 0.01 0.01 0.02 0.02 0.02 0.02 0.01 0.01 0.01 0.01 0.01 0.01 0.01 0.01 0.02 0.02 0.04 0.03 0.03 0.04 0.04 0.03 0.02 0.02 0.02 0.01 0.01 0.01 0.01 0.01 0.01 0.01 0.01 0.01 0.01 0.01
0.01 0.01 0.01 0.01 0.01 0.01 0.01 0.01 0.01 0.01 0.01 0.01 0.01 0.01 0.01 0.01 0.02 0.02 0.03 0.03 0.03 0.03 0.03 0.03 0.03 0.02 0.01 0.01 0.01 0.01 0.01 0.01 0.01 0.01 0.01 0.01 0.01 0.01
0.01 0.01 0.01 0.01 0.01 0.01 0.02 0.02 0.01 0.02 0.01 0.01 0.01 0.01 0.01 0.01 0.01 0.02 0.02 0.03 0.04 0.04 0.03 0.03 0.03 0.03 0.02 0.01 0.01 0.01 0.01 0.01 0.01 0.01 0.01 0.01 0.01 0.01
0.01 0.01 0.02 0.02 0.02 0.01 0.01 0.01 0.01 0.01 0.01 0.01 0.01 0.01 0.01 0.01 0.01 0.01 0.01 0.01 0.02 0.02 0.03 0.03 0.03 0.03 0.03 0.03 0.02 0.01 0.01 0.01 0.01 0.01 0.01 0.01 0.01 0.00
0.02 0.01 0.02 0.02 0.02 0.02 0.01 0.01 0.00 0.01 0.01 0.00 0.01 0.01 0.01 0.01 0.01 0.01 0.01 0.01 0.01 0.01 0.01 0.01 0.02 0.02 0.03 0.03 0.03 0.03 0.03 0.02 0.02 0.01 0.01 0.01 0.01 0.01
0.03 0.01 0.01 0.01 0.02 0.02 0.02 0.01 0.01 0.01 0.01 0.01 0.01 0.01 0.02 0.01 0.01 0.01 0.01 0.00 0.00 0.01 0.01 0.01 0.02 0.02 0.03 0.02 0.02 0.03 0.03 0.02 0.02 0.02 0.02 0.02 0.02 0.02
0.03 0.03 0.01 0.01 0.02 0.02 0.02 0.02 0.01 0.01 0.01 0.01 0.01 0.01 0.01 0.01 0.02 0.02 0.02 0.01 0.01 0.01 0.01 0.01 0.02 0.02 0.03 0.03 0.03 0.03 0.03 0.02 0.02 0.02 0.02 0.02 0.02 0.02
0.03 0.04 0.02 0.02 0.03 0.03 0.03 0.03 0.02 0.01 0.01 0.01 0.01 0.01 0.01 0.01 0.01 0.02 0.02 0.03 0.03 0.02 0.01 0.01 0.02 0.02 0.02 0.02 0.03 0.03 0.03 0.03 0.02 0.02 0.02 0.02 0.01 0.01
0.04 0.05 0.03 0.03 0.03 0.04 0.03 0.03 0.02 0.01 0.00 0.01 0.00 0.00 0.01 0.01 0.01 0.01 0.01 0.02 0.02 0.03 0.03 0.03 0.02 0.02 0.02 0.02 0.03 0.03 0.03 0.03 0.02 0.01 0.01 0.01 0.01 0.01
0.04 0.04 0.04 0.02 0.03 0.03 0.04 0.04 0.03 0.02 0.01 0.01 0.01 0.01 0.01 0.01 0.01 0.01 0.01 0.01 0.01 0.01 0.01 0.02 0.03 0.02 0.02 0.02 0.02 0.01 0.01 0.01 0.01 0.01 0.01 0.01 0.01 0.01
0.03 0.03 0.03 0.02 0.03 0.03 0.04 0.04 0.04 0.03 0.02 0.02 0.02 0.01 0.01 0.01 0.01 0.01 0.01 0.01 0.01 0.01 0.01 0.01 0.01 0.02 0.02 0.02 0.01 0.01 0.01 0.01 0.01 0.01 0.01 0.01 0.01 0.00
0.02 0.02 0.02 0.03 0.02 0.02 0.02 0.03 0.04 0.04 0.04 0.03 0.01 0.01 0.01 0.01 0.01 0.01 0.01 0.02 0.02 0.02 0.02 0.01 0.01 0.01 0.02 0.02 0.02 0.02 0.01 0.01 0.01 0.01 0.01 0.01 0.01 0.01
0.02 0.02 0.02 0.02 0.02 0.02 0.01 0.02 0.02 0.03 0.03 0.03 0.02 0.01 0.01 0.01 0.01 0.01 0.01 0.02 0.02 0.02 0.02 0.02 0.03 0.03 0.03 0.02 0.02 0.02 0.01 0.01 0.01 0.01 0.01 0.02 0.02 0.01
0.02 0.03 0.02 0.02 0.01 0.01 0.02 0.02 0.02 0.02 0.02 0.02 0.02 0.02 0.01 0.01 0.02 0.02 0.03 0.03 0.03 0.03 0.03 0.03 0.03 0.03 0.02 0.02 0.01 0.01 0.01 0.01 0.02 0.01 0.01 0.01 0.02 0.02
0.02 0.02 0.02 0.02 0.01 0.01 0.01 0.02 0.02 0.02 0.02 0.02 0.02 0.02 0.02 0.03 0.03 0.04 0.04 0.04 0.04 0.04 0.03 0.03 0.02 0.02 0.02 0.01 0.01 0.01 0.01 0.02 0.02 0.02 0.02 0.02 0.01 0.01
MSLP
1023.17 1023.42 1023.71 1024.02 1024.30 1024.53 1024.68 1024.75 1024.75 1024.69 1024.60 1024.48 1024.37 1024.27 1024.18 1024.12 1024.05 1023.99 1023.93 1023.87 1023.82 1023.78 1023.76 1023.77 1023.81 1023.85 1023.91 1023.95 1023.96 1023.94 1023.88 1023.76 1023.60 1023.41 1023.18 1022.92 1022.65 1022.37
1023.45 1023.69 1023.96 1024.22 1024.46 1024.64 1024.76 1024.81 1024.80 1024.74 1024.64 1024.53 1024.42 1024.31 1024.21 1024.11 1024.00 1023.88 1023.77 1023.65 1023.54 1023.46 1023.42 1023.41 1023.43 1023.49 1023.56 1023.62 1023.68 1023.69 1023.67 1023.61 1023.50 1023.35 1023.17 1022.96 1022.73 1022.47
1023.70 1023.93 1024.17 1024.40 1024.60 1024.75 1024.85 1024.89 1024.88 1024.83 1024.76 1024.67 1024.57 1024.47 1024.36 1024.23 1024.08 1023.91 1023.72 1023.53 1023.35 1023.20 1023.09 1023.03 1023.02 1023.06 1023.12 1023.20 1023.27 1023.33 1023.36 1023.35 1023.31 1023.22 1023.11 1022.96 1022.77 1022.55
1023.89 1024.13 1024.36 1024.57 1024.74 1024.87 1024.96 1025.00 1025.00 1024.98 1024.94 1024.89 1024.82 1024.74 1024.63 1024.48 1024.29 1024.06 1023.80 1023.53 1023.26 1023.02 1022.83 1022.69 1022.62 1022.61 1022.64 1022.71 1022.79 1022.88 1022.95 1023.00 1023.02 1023.01 1022.97 1022.89 1022.77 1022.60
1024.05 1024.29 1024.52 1024.72 1024.89 1025.02 1025.11 1025.16 1025.19 1025.20 1025.19 1025.18 1025.14 1025.08 1024.97 1024.81 1024.59 1024.31 1023.98 1023.63 1023.27 1022.94 1022.65 1022.42 1022.26 1022.18 1022.16 1022.20 1022.27 1022.37 1022.48 1022.58 1022.66 1022.73 1022.76 1022.75 1022.70 1022.59
1024.19 1024.45 1024.69 1024.90 1025.07 1025.20 1025.30 1025.37 1025.42 1025.45 1025.48 1025.50 1025.49 1025.44 1025.34 1025.17 1024.93 1024.61 1024.23 1023.81 1023.37 1022.94 1022.56 1022.24 1021.99 1021.83 1021.74 1021.73 1021.78 1021.87 1021.99 1022.12 1022.26 1022.39 1022.49 1022.55 1022.57 1022.52
1024.35 1024.63 1024.88 1025.11 1025.29 1025.43 1025.54 1025.62 1025.68 1025.73 1025.77 1025.81 1025.81 1025.77 1025.67 1025.50 1025.24 1024.90 1024.49 1024.02 1023.52 1023.03 1022.57 1022.16 1021.83 1021.58 1021.42 1021.35 1021.36 1021.42 1021.54 1021.69 1021.86 1022.04 1022.19 1022.31 1022.38 1022.39
1024.55 1024.85 1025.12 1025.35 1025.55 1025.69 1025.80 1025.89 1025.95 1025.99 1026.03 1026.06 1026.06 1026.02 1025.92 1025.75 1025.49 1025.15 1024.73 1024.24 1023.71 1023.18 1022.66 1022.19 1021.79 1021.48 1021.25 1021.11 1021.07 1021.10 1021.20 1021.34 1021.53 1021.72 1021.91 1022.07 1022.18 1022.24
1024.78 1025.09 1025.38 1025.62 1025.82 1025.97 1026.08 1026.15 1026.19 1026.22 1026.24 1026.25 1026.23 1026.18 1026.08 1025.91 1025.66 1025.33 1024.92 1024.44 1023.92 1023.37 1022.84 1022.33 1021.89 1021.51 1021.23 1021.04 1020.94 1020.92 1020.99 1021.12 1021.29 1021.49 1021.69 1021.87 1022.02 1022.10
1025.01 1025.34 1025.64 1025.89 1026.10 1026.24 1026.33 1026.39 1026.41 1026.40 1026.39 1026.36 1026.32 1026.26 1026.15 1025.99 1025.76 1025.45 1025.07 1024.63 1024.13 1023.60 1023.07 1022.56 1022.09 1021.69 1021.36 1021.12 1020.97 1020.92 1020.94 1021.04 1021.19 1021.38 1021.58 1021.77 1021.92 1022.02
1025.23 1025.57 1025.87 1026.13 1026.34 1026.48 1026.56 1026.59 1026.58 1026.55 1026.50 1026.44 1026.37 1026.28 1026.17 1026.01 1025.81 1025.53 1025.19 1024.79 1024.33 1023.84 1023.33 1022.83 1022.36 1021.95 1021.60 1021.33 1021.15 1021.05 1021.04 1021.11 1021.23 1021.39 1021.58 1021.76 1021.92 1022.03
1025.39 1025.73 1026.05 1026.32 1026.53 1026.67 1026.74 1026.76 1026.73 1026.67 1026.59 1026.51 1026.41 1026.31 1026.19 1026.04 1025.85 1025.60 1025.30 1024.93 1024.52 1024.06 1023.59 1023.11 1022.66 1022.25 1021.89 1021.61 1021.41 1021.29 1021.25 1021.29 1021.38 1021.52 1021.69 1021.86 1022.01 1022.13
1025.47 1025.83 1026.16 1026.44 1026.66 1026.81 1026.88 1026.90 1026.86 1026.79 1026.70 1026.60 1026.49 1026.38 1026.25 1026.10 1025.92 1025.68 1025.40 1025.06 1024.67 1024.25 1023.80 1023.35 1022.92 1022.53 1022.18 1021.90 1021.70 1021.57 1021.52 1021.54 1021.61 1021.73 1021.88 1022.04 1022.18 1022.30
1025.49 1025.86 1026.21 1026.51 1026.74 1026.90 1026.99 1027.01 1026.99 1026.93 1026.84 1026.74 1026.63 1026.51 1026.37 1026.21 1026.02 1025.78 1025.49 1025.16 1024.78 1024.37 1023.95 1023.52 1023.11 1022.74 1022.42 1022.16 1021.97 1021.85 1021.80 1021.82 1021.89 1021.99 1022.13 1022.27 1022.40 1022.52
1025.44 1025.84 1026.20 1026.51 1026.77 1026.94 1027.06 1027.11 1027.11 1027.07 1027.00 1026.91 1026.81 1026.68 1026.54 1026.36 1026.14 1025.89 1025.58 1025.23 1024.84 1024.43 1024.01 1023.60 1023.21 1022.87 1022.58 1022.36 1022.20 1022.11 1022.08 1022.10 1022.17 1022.27 1022.39 1022.52 1022.65 1022.75
1025.36 1025.77 1026.15 1026.47 1026.74 1026.94 1027.08 1027.16 1027.19 1027.19 1027.15 1027.09 1027.00 1026.88 1026.72 1026.52 1026.28 1025.98 1025.64 1025.25 1024.83 1024.40 1023.98 1023.58 1023.22 1022.91 1022.67 1022.49 1022.38 1022.33 1022.33 1022.38 1022.46 1022.56 1022.68 1022.79 1022.90 1022.99
1025.24 1025.67 1026.05 1026.38 1026.65 1026.87 1027.03 1027.14 1027.22 1027.25 1027.26 1027.23 1027.16 1027.05 1026.88 1026.66 1026.38 1026.04 1025.65 1025.22 1024.77 1024.32 1023.89 1023.50 1023.17 1022.90 1022.71 1022.59 1022.54 1022.54 1022.59 1022.67 1022.77 1022.87 1022.98 1023.08 1023.16 1023.23
1025.10 1025.52 1025.89 1026.21 1026.48 1026.71 1026.89 1027.03 1027.14 1027.22 1027.27 1027.28 1027.25 1027.15 1026.99 1026.75 1026.44 1026.06 1025.63 1025.16 1024.67 1024.20 1023.77 1023.40 1023.10 1022.88 1022.75 1022.69 1022.71 1022.77 1022.87 1022.98 1023.10 1023.21 1023.31 1023.38 1023.44 1023.48
1024.90 1025.31 1025.66 1025.96 1026.22 1026.44 1026.63 1026.80 1026.95 1027.08 1027.17 1027.23 1027.23 1027.16 1027.00 1026.76 1026.44 1026.03 1025.57 1025.07 1024.57 1024.09 1023.66 1023.31 1023.05 1022.88 1022.81 1022.83 1022.90 1023.03 1023.18 1023.33 1023.47 1023.58 1023.67 1023.73 1023.75 1023.74
1024.62 1025.00 1025.33 1025.60 1025.84 1026.05 1026.25 1026.44 1026.62 1026.80 1026.94 1027.05 1027.09 1027.06 1026.93 1026.70 1026.37 1025.96 1025.49 1024.98 1024.47 1024.00 1023.59 1023.27 1023.05 1022.93 1022.92 1023.00 1023.14 1023.32 1023.51 1023.69 1023.85 1023.97 1024.05 1024.09 1024.08 1024.04
1024.24 1024.59 1024.88 1025.13 1025.34 1025.55 1025.75 1025.97 1026.19 1026.40 1026.60 1026.76 1026.86 1026.86 1026.77 1026.57 1026.26 1025.86 1025.40 1024.90 1024.40 1023.94 1023.56 1023.27 1023.09 1023.03 1023.06 1023.19 1023.38 1023.60 1023.83 1024.04 1024.21 1024.34 1024.41 1024.43 1024.40 1024.33
1023.74 1024.06 1024.33 1024.55 1024.75 1024.95 1025.17 1025.41 1025.66 1025.93 1026.18 1026.39 1026.54 1026.59 1026.54 1026.38 1026.10 1025.73 1025.29 1024.82 1024.35 1023.92 1023.56 1023.30 1023.16 1023.13 1023.20 1023.36 1023.58 1023.83 1024.08 1024.31 1024.50 1024.63 1024.70 1024.72 1024.68 1024.60
1023.12 1023.43 1023.67 1023.89 1024.09 1024.30 1024.54 1024.81 1025.10 1025.41 1025.71 1025.97 1026.17 1026.27 1026.27 1026.14 1025.91 1025.57 1025.17 1024.73 1024.29 1023.89 1023.56 1023.33 1023.21 1023.20 1023.29 1023.47 1023.70 1023.96 1024.22 1024.46 1024.65 1024.80 1024.88 1024.90 1024.87 1024.79
Thickness
5669 5667 5666 5665 5664 5663 5661 5659 5653 5647 5645 5648 5649 5651 5651 5651 5650 5649 5649 5648 5648 5647 5647 5647 5646 5646 5645 5644 5644 5643 5641 5640 5639 5638 5637 5636 5635 5633
5666 5665 5663 5662 5661 5660 5659 5657 5655 5651 5645 5646 5647 5648 5648 5648 5646 5646 5645 5645 5644 5643 5643 5642 5642 5641 5640 5639 5638 5637 5636 5635 5634 5633 5632 5630 5629 5628
5663 5662 5661 5660 5658 5657 5656 5655 5653 5650 5645 5644 5644 5645 5644 5643 5643 5642 5641 5640 5640 5639 5639 5638 5637 5636 5634 5633 5632 5631 5630 5629 5628 5628 5626 5625 5623 5622
5659 5658 5657 5657 5655 5654 5653 5651 5650 5649 5645 5641 5640 5640 5639 5639 5638 5637 5637 5636 5636 5635 5634 5633 5632 5631 5629 5628 5627 5625 5624 5623 5622 5621 5620 5618 5616 5615
5656 5655 5654 5653 5651 5650 5649 5648 5647 5646 5643 5640 5637 5636 5635 5634 5633 5632 5632 5631 5631 5630 5629 5628 5627 5626 5624 5623 5621 5620 5619 5618 5616 5615 5613 5612 5610 5608
5653 5652 5652 5651 5649 5648 5647 5645 5643 5641 5638 5636 5634 5632 5631 5630 5628 5626 5625 5625 5625 5625 5624 5623 5622 5621 5619 5618 5616 5614 5613 5612 5611 5609 5607 5606 5604 5601
5649 5649 5649 5649 5648 5647 5646 5643 5641 5637 5634 5631 5629 5627 5626 5624 5623 5622 5620 5619 5619 5620 5619 5617 5616 5615 5613 5612 5610 5609 5608 5606 5605 5603 5601 5599 5597 5595
5645 5645 5645 5645 5644 5644 5643 5642 5640 5636 5632 5628 5625 5623 5623 5622 5620 5619 5616 5613 5612 5614 5612 5611 5610 5609 5608 5606 5605 5604 5602 5601 5599 5597 5595 5593 5590 5589
5640 5640 5641 5641 5640 5639 5638 5637 5636 5634 5633 5629 5624 5622 5621 5620 5618 5615 5612 5610 5608 5609 5607 5605 5604 5602 5602 5601 5600 5598 5596 5594 5592 5590 5587 5585 5583 5581
5636 5636 5635 5635 5635 5634 5632 5630 5629 5628 5627 5626 5624 5622 5620 5619 5616 5613 5609 5606 5604 5603 5601 5598 5597 5596 5597 5595 5594 5592 5590 5587 5585 5583 5580 5577 5575 5573
5631 5631 5630 5630 5631 5630 5627 5624 5623 5622 5622 5621 5620 5618 5616 5614 5612 5608 5603 5599 5596 5595 5594 5591 5590 5589 5588 5588 5587 5585 5582 5580 5577 5574 5572 5569 5566 5564
5625 5625 5626 5625 5625 5624 5622 5619 5617 5616 5616 5614 5612 5611 5609 5607 5605 5603 5599 5594 5590 5588 5587 5584 5582 5580 5578 5578 5578 5576 5574 5571 5569 5566 5563 5561 5558 5555
5619 5619 5619 5620 5619 5618 5617 5616 5615 5613 5610 5607 5605 5603 5601 5600 5598 5596 5594 5591 5586 5584 5583 5579 5575 5572 5570 5568 5567 5566 5564 5562 5559 5557 5554 5551 5549 5546
5614 5613 5613 5614 5613 5612 5611 5610 5609 5606 5602 5599 5597 5595 5593 5592 5591 5589 5587 5585 5583 5580 5578 5574 5569 5565 5561 5558 5556 5555 5554 5552 5549 5547 5545 5542 5540 5537
5609 5609 5608 5607 5606 5604 5603 5602 5600 5597 5594 5592 5590 5588 5587 5586 5584 5581 5578 5576 5574 5571 5569 5566 5563 5559 5554 5551 5548 5545 5543 5542 5540 5538 5535 5533 5531 5528
5602 5601 5600 5599 5597 5596 5594 5593 5591 5589 5587 5585 5584 5582 5579 5576 5574 5572 5569 5566 5563 5561 5559 5557 5555 5551 5546 5543 5540 5538 5535 5533 5532 5529 5527 5524 5522 5520
5594 5591 5589 5587 5586 5585 5584 5583 5582 5580 5578 5577 5575 5573 5570 5568 5566 5563 5560 5557 5553 5551 5549 5547 5545 5542 5540 5536 5532 5531 5528 5526 5524 5522 5519 5516 5514 5512
5585 5582 5580 5579 5578 5577 5576 5575 5573 5572 5571 5569 5567 5565 5562 5560 5557 5555 5552 5548 5546 5543 5541 5538 5534 5531 5529 5527 5526 5524 5521 5518 5516 5514 5511 5507 5506 5505
5575 5574 5572 5571 5570 5569 5568 5567 5565 5565 5563 5561 5559 5557 5555 5552 5550 5547 5544 5541 5538 5536 5533 5529 5526 5523 5520 5520 5519 5517 5514 5512 5508 5505 5503 5500 5498 5498
5565 5565 5565 5564 5562 5561 5560 5559 5557 5556 5554 5552 5550 5548 5546 5544 5541 5539 5536 5533 5531 5528 5525 5522 5519 5517 5516 5514 5511 5509 5508 5505 5502 5499 5496 5493 5491 5490
5556 5556 5556 5555 5554 5553 5552 5551 5549 5547 5546 5543 5542 5540 5537 5535 5533 5531 5528 5525 5522 5520 5518 5516 5515 5512 5509 5504 5502 5501 5500 5498 5496 5493 5489 5485 5482 5479
5547 5546 5546 5545 5545 5543 5542 5541 5540 5538 5536 5534 5533 5531 5528 5526 5524 5522 5519 5516 5514 5512 5511 5509 5506 5502 5499 5497 5495 5494 5491 5489 5488 5485 5483 5480 5475 5472
5536 5535 5535 5535 5534 5533 5533 5532 5531 5530 5528 5526 5525 5522 5520 5517 5516 5513 5511 5509 5507 5504 5501 5498 5495 5493 5491 5489 5487 5485 5483 5480 5477 5475 5473 5472 5470 5468